Regional Weather Roundup
Issued by NWS Albany, NY

Home | Current Version | Previous Version | Text Only | Print | Product List | Glossary On
Versions: 1 2 3 4 5 6 7 8 9 10 11 12 13 14 15 16 17 18 19 20 21 22 23 24 25 26 27 28 29 30 31 32 33 34 35 36 37 38 39 40 41 42 43 44 45 46 47 48 49 50
000
ASUS41 KALY 011210
RWRALY

NEW YORK STATE HOURLY WEATHER ROUNDUP
NATIONAL WEATHER SERVICE ALBANY NY
800 AM EDT WED JUL 01 2015

NOTE: "FAIR" INDICATES FEW OR NO CLOUDS BELOW 12,000 FEET WITH NO
SIGNIFICANT WEATHER AND/OR NO OBSTRUCTIONS TO VISIBILITY.

NYZ032-033-038>043-046>054-057>066-NYZ062>081-011300-
EAST


CITY           SKY/WX    TMP DP  RH WIND       PRES   REMARKS
ALBANY         LGT RAIN  68  65  90 S6        29.72F
GLENS FALLS    LGT RAIN  64  62  93 CALM      29.72F FOG
POUGHKEEPSIE   CLOUDY    68  65  90 SW3       29.75S
NEWBURGH       PTSUNNY   66  66 100 CALM      29.77S
MONTGOMERY     CLOUDY    67  66  97 SW3       29.76R
WHITE PLAINS   CLOUDY    68  66  93 CALM      29.78R
ISLIP          CLOUDY    71  68  90 SW8       29.77R
NEW YORK CITY  CLOUDY    72  66  81 SW10      29.77S
CENTRAL PARK   CLOUDY    70  66  87 VRB5      29.81R FOG
$$

NYZ005>009-017-018-044>046-055-056-011300-
CENTRAL


CITY           SKY/WX    TMP DP  RH WIND       PRES   REMARKS
FULTON         CLOUDY    65  62  90 SW5       29.72R
SYRACUSE       CLOUDY    65  64  97 SW5       29.72S
ROME           CLOUDY    64  63  96 SE5       29.73S
ELMIRA         PTSUNNY   66  61  84 SW6       29.76R
BINGHAMTON     CLOUDY    61  60  97 SW9       29.78R FOG
MONTICELLO     CLOUDY    63  63 100 SW3       29.80F
$$

NYZ026>034-041>043-011300-
NORTH


CITY           SKY/WX    TMP DP  RH WIND       PRES   REMARKS
WATERTOWN      HVY RAIN  63  62  97 W10       29.68S VSB 1
FORT DRUM      NOT AVBL
MASSENA        CLOUDY    63  61  93 CALM      29.68F
SARANAC LAKE   CLOUDY    62  60  93 CALM      29.72F
PLATTSBURGH    CLOUDY    64  62  93 S6        29.71S
$$

NYZ001>004-010>016-019>021-011300-
WEST


CITY           SKY/WX    TMP DP  RH WIND       PRES   REMARKS
NIAGARA FALLS  CLOUDY    65  61  87 W8        29.73R
BUFFALO        RAIN      64  62  93 W9        29.73F FOG
DUNKIRK        CLOUDY    64  62  93 SW12      29.76R
JAMESTOWN      CLOUDY    61  57  88 SW7       29.80S
WELLSVILLE     CLOUDY    62  58  86 SW7       29.82S
ROCHESTER      LGT RAIN  65  61  87 W8        29.72F
PENN YAN       CLOUDY    65  59  81 VRB3      29.76R
$$

             KEY
       WCI = WIND CHILL INDEX
       VSB = VISIBILITY
       HX  = HEAT INDEX
$$


USA.gov is the U.S. government's official web portal to all federal, state and local government web resources and services.